Wind_Speed
95 93 92 90 90 90 89 87 87 85 84 82 81 80 80 78 76 74 71 69 69 69 67 65 63 63 62 60 58 57 55 53 50 47 45 43 41 40 39 38 37 37 38
82 80 79 79 79 80 81 81 82 82 82 83 83 84 84 83 81 78 76 73 71 71 71 69 67 65 63 62 60 59 58 55 54 51 48 46 44 42 40 40 39 38 39
71 69 68 68 69 70 71 73 75 77 78 80 82 85 86 86 85 83 80 78 75 73 73 73 71 69 66 64 62 60 58 57 56 54 51 49 47 44 42 41 40 40 39
69 68 66 64 64 64 66 67 69 71 73 77 80 84 86 88 89 87 85 83 80 77 76 75 75 74 71 68 65 63 60 57 56 54 52 51 49 47 44 42 41 40 40
67 65 63 62 61 61 62 64 67 68 70 72 76 81 85 89 91 92 90 87 84 81 79 78 78 78 76 73 69 66 64 60 56 55 52 50 50 49 47 44 42 41 41
62 60 59 58 57 57 59 61 63 66 69 70 72 76 82 88 92 94 94 92 89 86 82 79 79 79 79 77 73 70 68 65 60 57 54 51 49 49 48 47 45 43 42
57 55 54 52 52 52 54 56 59 63 67 69 70 71 76 83 89 94 96 95 93 90 86 82 80 80 79 79 77 75 73 70 65 60 58 54 52 50 49 47 47 45 43
52 50 48 47 47 47 49 52 55 57 62 67 70 70 71 76 83 89 95 98 96 94 90 85 82 81 79 78 78 77 76 75 71 66 61 59 55 54 51 49 48 46 44
50 49 48 46 44 44 44 46 49 52 56 62 68 71 71 72 76 82 90 96 98 97 94 90 85 84 81 77 77 77 78 78 75 71 65 62 59 55 54 52 49 46 42
51 50 49 48 46 44 42 42 43 47 51 56 63 69 72 71 72 76 83 91 97 99 97 93 89 85 82 78 77 76 78 80 79 75 70 66 62 59 56 54 50 46 43
54 53 52 50 49 46 43 41 41 42 46 51 57 64 71 72 72 72 76 84 93 98 100 97 93 87 83 81 76 73 74 78 80 78 74 69 65 62 59 55 51 46 42
56 56 54 52 51 48 45 42 40 40 41 46 52 58 66 72 73 71 71 76 86 94 100 100 98 93 89 85 81 75 71 73 78 79 77 72 68 64 61 58 54 49 45
58 58 56 54 51 48 45 42 40 39 39 41 47 53 60 68 73 71 69 71 78 88 97 101 100 99 95 88 84 79 73 71 74 77 78 74 70 66 62 60 56 52 48
62 61 59 56 52 49 45 42 40 38 37 38 42 48 54 63 70 72 70 69 71 78 90 98 102 101 99 92 85 81 77 71 72 75 78 76 72 67 63 60 57 54 52
67 65 62 57 53 49 46 42 39 37 35 35 38 43 49 56 65 71 71 69 68 71 81 92 100 102 101 96 89 84 80 74 72 74 76 76 73 69 65 61 59 56 54
71 68 62 56 50 47 44 41 38 35 33 33 34 39 45 51 59 67 70 68 66 67 73 84 95 101 101 98 93 87 83 79 74 73 74 75 74 71 67 64 61 57 54
72 66 58 49 41 38 37 37 36 34 31 30 31 35 40 46 53 62 67 67 65 63 66 74 86 96 100 96 93 90 87 82 78 75 74 74 74 72 69 67 64 61 58
70 60 49 37 27 22 24 28 30 30 29 28 29 32 36 41 48 56 62 64 63 61 61 66 76 86 94 93 90 90 89 85 81 77 75 74 73 72 70 68 66 64 62
64 52 40 29 19 9 7 16 21 24 25 26 27 29 33 38 43 50 56 59 60 58 57 61 68 78 86 90 88 88 89 86 84 80 76 74 73 72 70 69 67 66 64
59 46 35 27 20 13 6 3 12 17 21 23 25 27 31 35 40 45 51 54 55 55 54 57 64 72 79 84 85 86 87 87 85 82 79 76 73 72 70 69 67 66 65
56 41 31 26 21 17 12 4 3 11 17 20 23 26 30 33 37 42 46 48 50 50 50 53 60 69 77 80 81 82 84 85 85 84 82 79 74 71 69 69 68 67 65
56 41 28 21 17 15 11 6 2 7 13 18 22 26 29 32 35 38 41 43 44 44 44 48 55 67 78 82 81 82 82 83 84 83 82 80 76 73 70 68 68 67 66
58 44 29 19 13 10 8 5 2 5 10 16 21 25 29 32 34 36 38 38 39 38 39 41 48 62 77 87 84 82 83 83 83 83 81 79 77 74 72 68 67 68 68
62 49 35 24 16 11 9 7 5 3 7 14 20 25 29 31 33 34 35 35 34 34 34 36 41 54 73 87 90 86 82 84 84 82 80 77 76 74 72 69 66 66 67
67 57 43 31 22 16 13 10 7 3 4 11 18 25 29 31 32 33 33 32 32 31 31 32 35 43 61 79 91 90 85 84 84 82 79 75 73 72 70 67 65 64 64
69 64 53 40 29 21 16 12 8 4 3 9 17 24 29 31 33 33 32 31 30 29 29 30 33 38 48 65 83 91 90 85 83 81 79 74 71 70 69 67 64 61 61
Wind_Direction
289 286 283 279 276 272 269 265 262 258 253 249 245 241 239 238 238 238 237 237 236 234 232 231 231 232 233 232 230 230 229 230 228 227 228 228 229 229 229 230 231 230 230
290 286 282 278 274 270 267 264 260 256 252 248 244 240 237 235 235 235 234 234 234 233 231 230 230 230 231 231 230 230 229 230 228 225 226 228 228 229 230 230 230 230 230
293 289 284 279 274 269 264 260 257 253 249 245 241 239 235 233 232 232 232 231 231 231 230 229 228 229 229 229 229 229 230 230 228 225 224 226 227 228 229 230 230 230 229
298 293 288 283 276 270 264 258 254 250 246 242 238 235 233 231 229 229 229 228 228 228 228 228 227 227 228 227 227 226 228 229 228 225 224 225 226 227 228 229 230 230 230
300 296 291 285 279 273 266 260 253 248 244 241 236 233 231 229 228 227 227 226 226 226 226 226 226 227 227 227 226 225 226 227 228 225 223 225 225 225 226 228 229 230 230
302 298 294 288 281 275 268 262 255 249 244 239 236 233 230 228 226 225 225 225 224 224 224 224 225 226 227 227 226 224 224 225 225 224 222 223 224 224 225 226 228 229 230
307 304 299 293 286 279 272 265 258 251 245 240 236 233 230 228 226 224 224 223 222 222 221 222 223 224 226 227 227 225 223 224 223 223 223 223 225 225 225 225 226 227 230
313 310 306 300 293 285 277 269 262 254 247 241 236 232 230 229 227 224 223 222 221 220 219 219 220 221 224 226 226 225 223 223 224 223 223 224 226 228 227 229 228 227 231
316 314 310 305 299 291 283 275 266 258 250 243 237 232 229 228 228 225 223 222 220 219 218 217 218 219 222 224 226 225 224 222 222 223 223 224 226 228 229 230 231 229 232
318 316 312 308 302 296 288 281 272 262 253 245 239 233 228 226 226 227 224 222 220 219 217 216 216 218 219 221 223 224 223 222 221 222 222 222 224 226 229 231 232 232 234
317 314 311 307 303 297 290 284 277 267 256 247 239 234 228 225 224 224 225 223 220 219 217 215 214 215 217 218 219 220 222 221 220 221 221 221 222 224 227 229 231 232 233
315 312 309 305 301 296 290 283 278 271 261 250 240 234 229 225 223 222 223 224 221 219 217 215 214 213 214 217 218 219 220 221 220 220 221 221 221 223 225 227 229 231 233
316 311 307 303 298 293 288 282 276 271 263 253 242 234 229 225 222 220 220 222 223 220 217 215 214 213 214 216 219 219 220 220 220 221 221 221 221 222 223 225 228 229 231
318 313 308 302 295 289 284 279 273 268 263 254 243 234 229 224 221 219 218 218 221 222 218 216 214 214 215 216 218 219 219 219 220 221 221 221 222 221 221 223 225 226 228
320 315 309 301 292 285 279 274 269 265 260 253 243 234 228 224 220 218 217 217 218 221 220 217 215 214 215 216 217 217 217 218 218 219 221 221 222 222 221 222 224 225 226
324 318 311 303 292 280 272 267 263 260 255 250 242 233 227 222 219 216 216 216 216 218 221 219 217 215 215 215 216 217 217 217 217 218 220 221 222 221 221 221 223 224 225
329 324 318 309 296 279 265 259 256 253 249 245 239 232 225 221 218 215 214 215 215 216 218 220 218 216 215 215 216 217 218 217 217 218 219 221 222 222 221 221 221 223 224
337 334 332 326 313 286 259 250 247 245 242 239 235 228 222 218 215 213 213 213 214 214 216 218 219 217 215 213 214 216 217 217 217 217 218 220 221 222 221 220 220 222 224
346 347 350 353 354 340 262 242 240 238 234 232 229 224 218 215 212 211 211 211 213 214 215 216 217 216 214 212 212 214 216 217 217 216 217 219 220 222 222 221 221 222 224
356 1 11 24 36 49 51 237 231 228 226 224 221 217 213 210 208 207 208 209 212 214 215 215 215 214 212 210 211 211 212 215 216 216 216 217 219 221 222 222 221 222 223
2 9 25 40 51 60 52 39 235 221 218 216 213 210 207 204 203 204 205 207 210 214 216 216 214 212 208 206 208 209 210 212 215 216 216 217 218 220 221 221 221 222 223
7 11 25 44 61 65 49 34 284 219 213 210 207 204 201 199 199 200 201 204 208 212 216 216 214 211 207 203 202 204 206 208 211 213 215 216 217 218 219 221 221 222 223
11 14 21 33 50 56 38 9 319 226 211 204 202 199 197 195 195 196 198 201 206 210 214 216 215 210 206 203 200 199 202 206 208 210 212 214 216 218 219 220 220 221 222
15 16 18 20 23 19 10 358 344 277 215 201 199 196 193 193 193 193 195 198 203 208 212 215 214 211 207 206 203 199 199 203 206 207 209 211 214 216 218 218 219 220 222
19 19 19 18 17 16 13 10 1 333 219 201 198 195 192 192 192 192 194 197 201 206 211 213 212 212 209 207 208 204 201 201 203 205 207 208 210 213 215 216 217 219 221
21 22 22 21 19 17 15 13 10 359 225 204 199 195 193 192 193 192 193 195 199 205 209 213 212 210 209 208 208 209 206 204 204 205 205 207 209 211 212 214 215 217 219
Height
5626 5620 5615 5611 5611 5612 5614 5617 5621 5628 5635 5642 5651 5659 5668 5676 5685 5694 5704 5711 5720 5728 5736 5742 5749 5755 5761 5767 5773 5780 5785 5791 5796 5802 5807 5812 5817 5821 5826 5830 5834 5838 5842
5597 5591 5586 5583 5581 5581 5582 5585 5590 5597 5604 5613 5622 5632 5642 5652 5663 5673 5684 5693 5702 5711 5719 5727 5734 5742 5748 5754 5761 5768 5774 5779 5785 5791 5798 5803 5809 5813 5818 5822 5827 5831 5835
5573 5567 5562 5558 5556 5555 5555 5557 5560 5567 5574 5583 5593 5603 5615 5628 5640 5650 5661 5672 5682 5692 5701 5710 5719 5727 5734 5741 5748 5756 5762 5768 5774 5780 5787 5793 5799 5805 5810 5815 5819 5823 5828
5550 5544 5539 5535 5533 5531 5530 5532 5535 5540 5547 5554 5564 5575 5587 5601 5614 5626 5638 5649 5661 5672 5682 5692 5701 5710 5719 5727 5735 5743 5750 5757 5763 5770 5775 5782 5789 5795 5801 5806 5811 5816 5820
5529 5522 5517 5513 5510 5508 5507 5508 5511 5516 5522 5529 5537 5548 5560 5573 5587 5600 5613 5626 5639 5652 5663 5674 5683 5693 5702 5712 5720 5729 5738 5746 5753 5760 5766 5771 5778 5785 5792 5798 5803 5808 5813
5511 5504 5498 5493 5489 5487 5486 5486 5488 5493 5499 5506 5514 5524 5534 5546 5559 5573 5588 5602 5616 5630 5643 5654 5665 5675 5685 5695 5706 5715 5724 5733 5741 5749 5756 5761 5766 5773 5781 5788 5794 5800 5805
5495 5487 5481 5475 5471 5468 5466 5465 5467 5471 5476 5483 5492 5502 5512 5521 5532 5547 5563 5577 5593 5609 5623 5636 5647 5658 5668 5678 5690 5700 5710 5720 5729 5738 5746 5752 5757 5763 5770 5777 5784 5790 5796
5482 5474 5467 5460 5455 5451 5448 5446 5447 5450 5455 5460 5469 5480 5491 5501 5510 5524 5537 5552 5570 5586 5602 5616 5629 5640 5651 5661 5673 5684 5695 5706 5716 5725 5734 5742 5748 5754 5761 5768 5774 5780 5787
5472 5463 5455 5448 5442 5437 5433 5430 5429 5430 5435 5440 5447 5458 5470 5480 5491 5502 5513 5529 5546 5562 5580 5596 5610 5623 5635 5645 5656 5668 5680 5691 5701 5712 5722 5731 5738 5745 5752 5758 5765 5772 5778
5461 5452 5444 5436 5429 5424 5419 5416 5413 5413 5416 5421 5427 5436 5448 5460 5470 5482 5493 5507 5522 5540 5558 5576 5592 5606 5619 5630 5641 5652 5664 5676 5687 5698 5709 5719 5727 5735 5742 5748 5755 5762 5770
5449 5439 5430 5422 5415 5410 5405 5401 5398 5397 5398 5402 5408 5416 5427 5440 5451 5462 5474 5486 5501 5518 5537 5556 5573 5589 5602 5614 5626 5637 5649 5661 5672 5684 5695 5706 5716 5724 5732 5739 5746 5753 5761
5437 5425 5416 5407 5400 5394 5390 5386 5384 5382 5382 5384 5390 5397 5407 5420 5433 5445 5458 5467 5481 5497 5516 5535 5554 5570 5584 5597 5610 5622 5634 5647 5658 5670 5681 5692 5703 5713 5722 5730 5738 5746 5753
5423 5411 5400 5391 5383 5377 5373 5370 5369 5367 5367 5369 5373 5380 5389 5401 5414 5428 5441 5451 5462 5478 5495 5515 5533 5550 5566 5580 5593 5606 5620 5633 5645 5656 5668 5679 5690 5701 5711 5720 5729 5737 5745
5405 5392 5380 5371 5363 5358 5355 5353 5353 5353 5353 5355 5359 5365 5373 5383 5396 5410 5424 5437 5447 5459 5476 5495 5513 5531 5546 5562 5577 5591 5607 5619 5632 5643 5654 5666 5678 5689 5700 5710 5719 5727 5735
5384 5369 5357 5347 5340 5336 5334 5335 5336 5337 5339 5341 5345 5351 5358 5368 5379 5393 5408 5422 5434 5445 5459 5476 5493 5509 5526 5545 5562 5577 5592 5606 5618 5630 5642 5653 5665 5678 5689 5700 5709 5717 5725
5363 5345 5330 5319 5313 5311 5312 5315 5319 5322 5326 5329 5333 5338 5345 5354 5365 5378 5393 5407 5420 5432 5444 5459 5474 5491 5509 5529 5546 5563 5578 5592 5605 5617 5629 5641 5653 5665 5678 5689 5699 5707 5715
5342 5322 5305 5294 5288 5287 5291 5296 5302 5308 5313 5318 5322 5327 5334 5343 5353 5366 5379 5394 5408 5421 5433 5444 5458 5475 5494 5514 5532 5548 5563 5578 5591 5604 5616 5628 5640 5653 5665 5678 5689 5698 5707
5325 5304 5287 5276 5271 5270 5275 5281 5288 5296 5302 5308 5312 5318 5325 5333 5343 5355 5368 5382 5397 5410 5422 5432 5443 5460 5480 5500 5517 5533 5549 5563 5578 5591 5604 5616 5628 5640 5653 5666 5677 5688 5697
5315 5295 5281 5271 5266 5265 5268 5274 5280 5287 5293 5299 5304 5310 5317 5325 5335 5346 5359 5373 5387 5400 5412 5422 5432 5447 5466 5486 5502 5518 5534 5549 5564 5577 5591 5603 5616 5629 5641 5654 5665 5677 5687
5312 5295 5283 5275 5271 5269 5270 5272 5276 5281 5287 5293 5298 5304 5311 5319 5328 5339 5351 5364 5377 5390 5401 5411 5421 5435 5453 5471 5487 5503 5520 5536 5550 5564 5577 5591 5604 5616 5629 5642 5655 5666 5676
5312 5298 5288 5281 5278 5275 5275 5274 5276 5279 5284 5289 5294 5300 5306 5314 5323 5333 5345 5357 5369 5380 5391 5400 5410 5422 5439 5457 5474 5489 5506 5521 5535 5550 5565 5579 5593 5606 5617 5629 5641 5653 5664
5317 5303 5294 5287 5283 5280 5279 5278 5278 5280 5283 5287 5291 5297 5303 5311 5320 5330 5340 5351 5362 5372 5381 5389 5398 5410 5425 5442 5459 5474 5490 5506 5523 5540 5553 5566 5579 5593 5605 5618 5630 5641 5652
5323 5309 5300 5293 5288 5285 5283 5281 5280 5281 5283 5286 5290 5295 5302 5309 5318 5327 5336 5346 5356 5364 5373 5380 5388 5397 5411 5428 5445 5463 5477 5492 5510 5525 5540 5554 5567 5580 5593 5606 5617 5628 5639
5330 5316 5305 5298 5293 5289 5286 5284 5283 5283 5284 5287 5290 5295 5301 5308 5316 5325 5334 5343 5351 5359 5366 5373 5380 5388 5399 5413 5430 5448 5463 5480 5497 5512 5526 5541 5554 5568 5581 5593 5604 5616 5627
5339 5324 5312 5303 5297 5293 5290 5287 5286 5285 5286 5287 5290 5295 5301 5308 5315 5323 5332 5340 5348 5354 5360 5367 5373 5380 5389 5402 5417 5434 5451 5467 5484 5500 5515 5529 5543 5556 5568 5580 5592 5604 5615
5348 5333 5320 5309 5302 5297 5293 5290 5288 5287 5287 5288 5291 5295 5301 5307 5314 5322 5330 5338 5345 5351 5357 5363 5368 5374 5382 5392 5405 5420 5438 5455 5472 5489 5503 5519 5532 5545 5557 5568 5581 5593 5603